STARLINK-1839 (47130 NORAD) Tracking and Keplerian Element Data

This shows tracking and keplerian element data for the satellite.

Feedback or suggestion? Click here.




ElementValue
Catalog47130
NameSTARLINK-1839
Epoch Orbit961
Epoch Day21.16668981
Epoch Year2021
RAAN82.1898
Inclination53.0554
Eccentricity0.0001403
Argument of Perigee49.3872
Mean Anonmoly277.1429
Mean Motion15.06383485
Decay Rate0.00018299
L11 47130U 20088J 21021.16668981 .00018299 00000-0 12447-2 0 9993
L22 47130 53.0554 82.1898 0001403 49.3872 277.1429 15.06383485 9617

Live tracking and technical data element details for STARLINK-1839 (NORAD 47130). STARLINK-1839 can be tracked NOW for your location showing map with azimuth and elevation plus other details from your city location.

Track the satellite on the map from your city or location and see movement details for azimuth, elevation, latitude, longitude, range, height, and movement on the map or in text.







IsCatalogInMostPopularTable: catalog: 47130, numindb: 15
Update: records affected: 1



GetName: 47130 STARLINK-1839

Hit Count: updated at: Sat, 23 Jan 2021 18:27:03 GMT